Location: Kellogg
(38.0159°N, 90.0546°W)
Time: 20:22:57
(UTC+00:00)

Transit 4A - Pass Details

Date: 20 September 2024
Orbit: 865 x 978 km, 66.8° (Epoch: 11 October)

Event Time Altitude Azimuth Distance (km) Brightness Sun altitude
Rises 14:23:46 0° 347° (NNW) 3,596 10.6 29.2°
Reaches altitude 10° 14:29:39 10° 30° (NNE) 2,683 10.5 30.3°
Maximum altitude 14:30:16 10° 36° (NE) 2,676 10.5 30.4°
Drops below altitude 10° 14:30:52 10° 42° (NE) 2,689 10.6 30.5°
Sets 14:36:49 0° 85° (E) 3,657 11.8 31.5°
